New Orleans NAS, LA

7:06 PM CDT on May 25, 2017 (GMT -0500)
New Orleans Naval Air Station

Weather History for KNBG - February, 2013

Change the Weather History Date:

Friday, February 22, 2013

  Actual Average Record
Temperature  
Mean Temperature 66 °F -  
Max Temperature 69 °F 64 °F 80 °F (2006)
Min Temperature 62 °F 49 °F 34 °F (1999)
Cooling Degree Days 1    
Growing Degree Days 16 (Base 50)    
Moisture  
Dew Point 58 °F    
Average Humidity 78    
Maximum Humidity 94    
Minimum Humidity 56    
Precipitation  
Precipitation 0.00 in - - ()
Sea Level Pressure  
Sea Level Pressure 29.92 in    
Wind  
Wind Speed 9 mph (East)    
Max Wind Speed 12 mph    
Max Gust Speed 17 mph    
Visibility 5 miles    
Events Fog , Rain    
Averages and records for this station are not official NWS values.
T = Trace of Precipitation, MM = Missing Value Source: NWS Daily Summary

Daily Weather History Graph

Daily Weather History Graph

Search for Another Location

Airport or City:

Trip Planner

Search our weather history database for the weather conditions in past years. The results will help you decide how hot, cold, wet, or windy it might be!

Date:

Astronomy

Feb. 22, 2013 Rise Set
Actual Time 6:32 AM CST 5:54 PM CST
Civil Twilight 6:08 AM CST 6:18 PM CST
Nautical Twilight 5:40 AM CST 6:46 PM CST
Astronomical Twilight 5:13 AM CST 7:14 PM CST
Moon 3:14 PM CST (2/22) 4:09 AM CST (2/22)
Length of Visible Light 12h 09m
Length of Day
11h 21m
Waxing Gibbous, 90% of the Moon is Illuminated
Feb 22
Waxing Gibbous
Feb 25
Full
Mar 4
Last Quarter
Mar 11
New
Mar 19
First Quarter

Hourly Weather History & Observations

Time (CST) Temp. Dew Point Humidity Pressure Visibility Wind Dir Wind Speed Gust Speed Precip Events Conditions
12:55 AM - - N/A% 29.89 in - North - - N/A   Unknown
1:55 AM - - N/A% 29.88 in - North - - N/A   Unknown
2:55 AM - - N/A% 29.88 in - North - - N/A   Unknown
3:55 AM - - N/A% 29.88 in - North - - N/A   Unknown
4:55 AM - - N/A% 29.88 in - North - - N/A   Unknown
6:09 AM 69.8 °F 66.2 °F 88% 29.90 in 0.2 mi Calm Calm - N/A Fog Fog
6:55 AM 68.7 °F 66.2 °F 92% 29.92 in 0.2 mi East 11.5 mph 17.3 mph N/A Fog Fog
7:22 AM 66.2 °F 62.6 °F 88% 29.94 in 2.0 mi East 11.5 mph - N/A   Overcast
7:50 AM 64.4 °F 62.6 °F 94% 29.95 in 3.0 mi East 11.5 mph - N/A   Overcast
7:55 AM 64.4 °F 61.7 °F 91% 29.95 in 3.0 mi East 11.5 mph - N/A   Overcast
8:27 AM 64.4 °F 62.6 °F 94% 29.97 in 0.8 mi East 11.5 mph - N/A Rain Light Rain
8:55 AM 64.9 °F 61.7 °F 89% 29.96 in 0.8 mi East 11.5 mph - N/A Rain Light Rain
9:02 AM 64.4 °F 62.6 °F 94% 29.97 in 3.0 mi ESE 11.5 mph - N/A Rain Light Rain
9:52 AM 66.2 °F 60.8 °F 83% 29.98 in 7.0 mi ESE 11.5 mph 17.3 mph N/A Rain Light Rain
9:55 AM 65.3 °F 60.4 °F 84% 29.98 in 7.0 mi ESE 11.5 mph 17.3 mph N/A Rain Light Rain
10:55 AM 65.7 °F 58.8 °F 79% 29.97 in 7.0 mi East 11.5 mph 17.3 mph N/A   Overcast
11:55 AM 66.0 °F 50.0 °F 56% 29.96 in 7.0 mi ESE 11.5 mph - N/A Rain Light Rain
12:55 PM 66.7 °F 56.8 °F 70% 29.94 in 7.0 mi ESE 11.5 mph - N/A   Overcast
1:17 PM 66.2 °F 57.2 °F 73% 29.92 in 7.0 mi ESE 11.5 mph - N/A Rain Light Rain
1:55 PM 67.1 °F 56.8 °F 70% 29.92 in 7.0 mi ESE 11.5 mph - N/A   Overcast
2:55 PM 66.6 °F 51.3 °F 58% 29.91 in 7.0 mi East 9.2 mph - N/A   Overcast
3:55 PM 66.4 °F 54.5 °F 66% 29.90 in 7.0 mi ESE 8.1 mph - N/A   Overcast
4:55 PM 66.4 °F 53.8 °F 64% 29.90 in 7.0 mi East 9.2 mph - N/A   Overcast
5:55 PM 66.4 °F 53.8 °F 64% 29.90 in 7.0 mi East 9.2 mph - N/A   Overcast
6:55 PM 65.7 °F 53.1 °F 64% 29.90 in 10.0 mi ENE 8.1 mph - N/A   Overcast
7:55 PM 63.5 °F 53.8 °F 71% 29.91 in 7.0 mi ENE 5.8 mph - N/A   Light Drizzle
8:55 PM 63.5 °F 55.6 °F 75% 29.91 in 3.0 mi East 5.8 mph - N/A Rain Light Rain
9:55 PM 63.5 °F 56.3 °F 77% 29.91 in 4.0 mi East 4.6 mph - N/A Rain Light Rain
10:55 PM 62.8 °F 55.4 °F 77% 29.93 in 4.0 mi ENE 8.1 mph - N/A Rain Light Rain
11:02 PM - - N/A% 29.92 in - North - - N/A   Unknown
11:55 PM - - N/A% 29.92 in - North - - N/A   Unknown